Regional Weather Roundup
Issued by NWS

Home | Current Version | Previous Version | Text Only | Print | Product List | Glossary On
Versions: 1 2 3 4 5 6 7 8 9 10 11 12 13 14 15 16 17 18 19 20 21 22 23 24 25 26 27 28 29 30 31 32 33 34 35 36 37 38 39 40 41 42 43 44 45 46 47 48 49 50
000
ASUS43 KDMX 191407
RWRIA

WEATHER ROUNDUP FOR IOWA
NATIONAL WEATHER SERVICE DES MOINES IA
900 AM CDT SUN APR 19 2015

NOTE: "FAIR" INDICATES FEW OR NO CLOUDS BELOW 12,000 FEET WITH NO
SIGNIFICANT WEATHER AND/OR OBSTRUCTIONS TO VISIBILITY.

* - THESE STATIONS ARE NOT NWS STATIONS...THUS NOT UNDER NWS
QUALITY CONTROL.  THEY ALSO DO NOT REPORT WEATHER SUCH
AS PRECIPITATION OR FOG.

IAZ001>003-012>014-020>022-031>034-043>046-191500-
   NORTHWEST IOWA

CITY           SKY/WX    TMP DP  RH WIND       PRES   REMARKS
CARROLL *      FOG       55  55 100 CALM      29.71S VSB 3/4
CHEROKEE *     FOG       55  55 100 W3        29.72S VSB 1
DENISON *      CLOUDY    54  54 100 CALM      29.71R FOG
LE MARS *      CLOUDY    54  52  94 NW18      29.76R
ORANGE CITY *  CLOUDY   N/A N/A N/A NW12      29.73S
SHELDON *      CLOUDY    54  54 100 NW12G18   29.71S FOG
SIOUX CITY     CLOUDY    53  48  83 NW21G32   29.74S
SPENCER        CLOUDY    56  55  97 W8        29.71F FOG
STORM LAKE *   CLOUDY   N/A N/A N/A MISG        N/A  FOG
$$

IAZ055>058-069>071-079>083-090>094-191500-
   SOUTHWEST IOWA

CITY           SKY/WX    TMP DP  RH WIND       PRES   REMARKS
ATLANTIC *     DRZL/FOG  55  55 100 CALM      29.71F VSB 1
AUDUBON *      LGT RAIN  55  54  94 CALM      29.72F
CLARINDA *     PTSUNNY   57  57 100 N5        29.70F FOG
COUNCIL BLFS * LGT RAIN  54  54 100 W6G14     29.73S
CRESTON *      CLOUDY    57  57 100 E8        29.71F FOG
HARLAN  *      LGT RAIN  55  55 100 W5        29.76R
LAMONI         CLOUDY    60  58  92 N8        29.68F
RED OAK *      LGT RAIN  57  57 100 CALM      29.71F
SHENANDOAH *   LGT RAIN  57  57 100 CALM      29.71F
$$

IAZ047>049-059>061-072>074-084-191500-
   CENTRAL IOWA

CITY           SKY/WX    TMP DP  RH WIND       PRES   REMARKS
AMES           CLOUDY    58  56  93 SE5       29.71F FOG
ANKENY *       CLOUDY    59  59 100 CALM      29.70F
CHARITON *     PTSUNNY   57  57 100 E6        29.71F
DES MOINES     CLOUDY    60  57  89 E3        29.70F
GRINNELL*      CLOUDY    57  55  94 E7        29.72F FOG
KNOXVILLE *    CLOUDY    59  57  94 CALM      29.70F FOG
MARSHALLTOWN   CLOUDY    56  54  93 E5        29.71F FOG
PELLA *        CLOUDY    59  59 100 CALM      29.72F FOG
PERRY *        PTSUNNY   59  59 100 S7        29.71F FOG
$$

IAZ004>006-015-016-023>025-035-036-191500-
   NORTH CENTRAL IOWA

CITY           SKY/WX    TMP DP  RH WIND       PRES   REMARKS
ALGONA *       FOG       57  57 100 SW7       29.71F VSB 1/2
CLARION *      CLOUDY    59  59 100 S7        29.71F
ESTHERVILLE    CLOUDY    55  55 100 SW8       29.70F
FORT DODGE *   CLOUDY    57  55  94 SE7       29.71F
MASON CITY     CLOUDY    55  32  41 S8        29.73F FOG
FOREST CITY *  CLOUDY    54  54 100 SW7       29.71F FOG
IOWA FALLS *   CLOUDY    57  55  94 CALM      29.73F FOG
$$

IAZ007>011-017>019-026>030-037>042-050>054-066-191500-
   NORTHEAST IOWA

CITY           SKY/WX    TMP DP  RH WIND       PRES   REMARKS
CEDAR RAPIDS   LGT RAIN  50  47  89 NE12      29.72F
CHARLES CITY * CLOUDY    52  48  87 SE10      29.74F
CLINTON *      PTSUNNY   61  43  51 SE15      29.78F
DECORAH *      MOSUNNY   52  45  76 VRB7G16   29.75F
DUBUQUE        CLOUDY    56  40  55 SE5       29.77F
MONTICELLO *   PTSUNNY   59  45  58 SE9       29.76F
OELWEIN *      PTSUNNY   52  46  82 SE8       29.75F
WATERLOO       PTSUNNY   54  47  77 E7        29.73F
$$

IAZ064-065-067-068-078-191500-
   EAST CENTRAL IOWA

CITY           SKY/WX    TMP DP  RH WIND       PRES   REMARKS
DAVENPORT      PTSUNNY   59  43  55 SE10      29.75F
IOWA CITY      CLOUDY    56  45  66 NE8       29.74F
MT. PLEASANT * PTSUNNY   57  50  77 E12       29.71F
MUSCATINE *    SUNNY     61  46  59 E8        29.73F
QUAD CITIES    PTSUNNY   59  44  57 E6        29.74F
$$

IAZ062-063-075>077-085>089-095>099-191500-
   SOUTHEAST IOWA

CITY           SKY/WX    TMP DP  RH WIND       PRES   REMARKS
BURLINGTON     PTSUNNY   59  49  69 NE9       29.70F
FAIRFIELD *    MOSUNNY   61  55  82 NE10      29.71F
FORT MADISON * SUNNY     57  52  82 E7        29.70F
KEOKUK *       MOSUNNY   61  52  72 E8        29.69F
OSKALOOSA *    DRIZZLE   57  57 100 CALM      29.71F
CENTERVILLE *    N/A     59  59 100 NE3       29.72F
OTTUMWA        CLOUDY    59  57  93 NE3       29.70F
WASHINGTON *   PTSUNNY   57  55  94 NE7       29.72F
$$

ABBREVIATIONS USED IN REMARKS
   TC - TEMPERATURES IN CELSIUS
  WCI - WIND CHILL INDEX
   HX - HEAT INDEX
  VSB - VISIBILITY
$$




USA.gov is the U.S. government's official web portal to all federal, state and local government web resources and services.